| time (UTC) | temp C | wind direction | speed KPH | gust KPH | rain 1hr cm | rain 24hr cm | rain mn cm | humidity % | barometer mb |
| 20260507040503 | 14 | 0 | 0.0 | 0.0 | 0.00 | 0.08 | 0.00 | 96 | 1007.4 |
| 20260507040024 | 14 | 0 | 0.0 | 0.0 | 0.00 | 0.08 | 0.00 | 95 | 1007.2 |
| 20260507040015 | 13 | 215 | 0.0 | 0.0 | 0.00 | 0.08 | 0.00 | 95 | 1006.2 |
| 20260507035503 | 14 | 0 | 0.0 | 0.0 | 0.00 | 0.08 | 0.08 | 95 | 1007.3 |
| 20260507035003 | 14 | 0 | 0.0 | 0.0 | 0.00 | 0.08 | 0.08 | 95 | 1007.4 |
| 20260507034516 | 13 | 215 | 0.0 | 0.0 | 0.00 | 0.08 | 0.08 | 95 | 1006.3 |
| 20260507034503 | 14 | 0 | 0.0 | 4.8 | 0.00 | 0.08 | 0.08 | 95 | 1007.3 |
| 20260507034003 | 14 | 0 | 0.0 | 4.8 | 0.00 | 0.08 | 0.08 | 95 | 1007.4 |
| 20260507033503 | 13 | 234 | 0.0 | 8.0 | 0.00 | 0.08 | 0.08 | 95 | 1007.5 |
| 20260507033005 | 13 | 238 | 0.0 | 8.0 | 0.00 | 0.08 | 0.08 | 95 | 1006.4 |
| 20260507033003 | 13 | 234 | 0.0 | 8.0 | 0.00 | 0.08 | 0.08 | 95 | 1007.5 |
| 20260507032524 | 13 | 220 | 0.0 | 4.8 | 0.00 | 0.08 | 0.08 | 95 | 1007.3 |
| 20260507032003 | 13 | 220 | 0.0 | 4.8 | 0.00 | 0.08 | 0.08 | 95 | 1007.2 |
| 20260507031524 | 13 | 217 | 0.0 | 4.8 | 0.00 | 0.08 | 0.08 | 95 | 1007.2 |
| 20260507031003 | 13 | 217 | 0.0 | 4.8 | 0.00 | 0.08 | 0.08 | 95 | 1007.2 |
| 20260507030524 | 13 | 214 | 0.0 | 4.8 | 0.00 | 0.08 | 0.08 | 95 | 1007.1 |
| 20260507030013 | 13 | 214 | 0.0 | 4.8 | 0.00 | 0.08 | 0.08 | 95 | 1006.0 |
| 20260507030003 | 13 | 214 | 0.0 | 4.8 | 0.00 | 0.08 | 0.08 | 95 | 1007.0 |
| 20260507025503 | 13 | 211 | 0.0 | 4.8 | 0.00 | 0.08 | 0.08 | 95 | 1007.1 |
| 20260507025003 | 13 | 211 | 0.0 | 4.8 | 0.00 | 0.08 | 0.08 | 95 | 1007.0 |
| 20260507024509 | 13 | 212 | 0.0 | 3.2 | 0.00 | 0.08 | 0.08 | 95 | 1005.9 |
| 20260507024503 | 13 | 211 | 0.0 | 3.2 | 0.00 | 0.08 | 0.08 | 95 | 1006.9 |
| 20260507024024 | 13 | 211 | 0.0 | 3.2 | 0.00 | 0.08 | 0.08 | 95 | 1007.0 |
| 20260507023503 | 13 | 0 | 0.0 | 0.0 | 0.00 | 0.08 | 0.08 | 95 | 1007.1 |
| 20260507023012 | 13 | 211 | 0.0 | 0.0 | 0.00 | 0.08 | 0.08 | 95 | 1006.1 |
| 20260507023003 | 13 | 0 | 0.0 | 0.0 | 0.00 | 0.08 | 0.08 | 95 | 1007.2 |
| 20260507022503 | 13 | 0 | 0.0 | 0.0 | 0.00 | 0.08 | 0.08 | 95 | 1007.2 |
| 20260507022003 | 13 | 200 | 0.0 | 4.8 | 0.00 | 0.08 | 0.08 | 95 | 1007.1 |
| 20260507021506 | 13 | 202 | 0.0 | 4.8 | 0.00 | 0.08 | 0.08 | 95 | 1006.0 |
| 20260507021503 | 13 | 200 | 0.0 | 4.8 | 0.00 | 0.08 | 0.08 | 95 | 1007.0 |
| 20260507021024 | 13 | 198 | 0.0 | 6.4 | 0.00 | 0.08 | 0.08 | 95 | 1006.9 |
| 20260507020503 | 13 | 198 | 1.6 | 6.4 | 0.00 | 0.08 | 0.08 | 95 | 1007.1 |
| 20260507020013 | 13 | 198 | 0.0 | 6.4 | 0.00 | 0.08 | 0.08 | 95 | 1006.1 |
| 20260507020003 | 13 | 198 | 0.0 | 6.4 | 0.00 | 0.08 | 0.08 | 95 | 1007.1 |
| 20260507015524 | 13 | 0 | 0.0 | 0.0 | 0.00 | 0.08 | 0.08 | 95 | 1007.1 |
| 20260507015003 | 13 | 197 | 0.0 | 6.4 | 0.00 | 0.08 | 0.08 | 95 | 1007.2 |
| 20260507014515 | 13 | 199 | 0.0 | 8.0 | 0.00 | 0.08 | 0.08 | 95 | 1006.2 |
| 20260507014503 | 13 | 193 | 1.6 | 8.0 | 0.00 | 0.08 | 0.08 | 95 | 1007.3 |
| 20260507014024 | 13 | 187 | 0.0 | 8.0 | 0.00 | 0.08 | 0.08 | 95 | 1007.2 |
| 20260507013524 | 13 | 185 | 0.0 | 6.4 | 0.00 | 0.08 | 0.08 | 95 | 1007.3 |
| 20260507013020 | 13 | 185 | 0.0 | 4.8 | 0.00 | 0.08 | 0.08 | 95 | 1006.5 |
| 20260507013003 | 13 | 185 | 0.0 | 4.8 | 0.00 | 0.08 | 0.08 | 95 | 1007.6 |
| 20260507012503 | 13 | 0 | 0.0 | 0.0 | 0.00 | 0.08 | 0.08 | 95 | 1007.7 |
| 20260507012003 | 13 | 0 | 0.0 | 0.0 | 0.00 | 0.08 | 0.08 | 95 | 1007.6 |
| 20260507011516 | 13 | 217 | 0.0 | 3.2 | 0.00 | 0.08 | 0.08 | 95 | 1006.6 |
| 20260507011503 | 13 | 217 | 0.0 | 4.8 | 0.00 | 0.08 | 0.08 | 95 | 1007.6 |
| 20260507011003 | 13 | 217 | 0.0 | 4.8 | 0.00 | 0.08 | 0.08 | 95 | 1007.6 |
| 20260507010503 | 13 | 220 | 0.0 | 3.2 | 0.00 | 0.08 | 0.08 | 95 | 1007.6 |
| 20260507010005 | 13 | 221 | 0.0 | 4.8 | 0.03 | 0.08 | 0.08 | 95 | 1006.6 |
| 20260507010003 | 13 | 211 | 0.0 | 4.8 | 0.03 | 0.08 | 0.08 | 95 | 1007.6 |
| 20260507005524 | 13 | 206 | 0.0 | 6.4 | 0.03 | 0.08 | 0.08 | 95 | 1007.5 |
| 20260507005003 | 13 | 205 | 0.0 | 6.4 | 0.03 | 0.08 | 0.08 | 95 | 1007.6 |
| 20260507004515 | 13 | 219 | 0.0 | 6.4 | 0.03 | 0.08 | 0.08 | 95 | 1006.6 |
| 20260507004503 | 13 | 216 | 0.0 | 6.4 | 0.03 | 0.08 | 0.08 | 95 | 1007.6 |
| 20260507004025 | 13 | 216 | 0.0 | 6.4 | 0.03 | 0.08 | 0.08 | 94 | 1007.5 |
| 20260507003524 | 13 | 249 | 0.0 | 4.8 | 0.03 | 0.08 | 0.08 | 94 | 1007.6 |
| 20260507003009 | 13 | 290 | 0.0 | 4.8 | 0.03 | 0.08 | 0.08 | 94 | 1006.4 |
| 20260507003003 | 13 | 249 | 0.0 | 4.8 | 0.03 | 0.08 | 0.08 | 94 | 1007.4 |
| 20260507002503 | 13 | 189 | 1.6 | 9.7 | 0.03 | 0.08 | 0.08 | 94 | 1007.4 |
| 20260507002003 | 13 | 193 | 1.6 | 9.7 | 0.03 | 0.08 | 0.08 | 94 | 1007.4 |
| 20260507001524 | 13 | 197 | 1.6 | 9.7 | 0.03 | 0.08 | 0.08 | 94 | 1007.5 |
| 20260507001505 | 13 | 193 | 3.2 | 9.7 | 0.03 | 0.08 | 0.08 | 94 | 1006.5 |
| 20260507001024 | 13 | 217 | 0.0 | 4.8 | 0.03 | 0.08 | 0.08 | 94 | 1007.4 |
| 20260507000503 | 13 | 220 | 0.0 | 4.8 | 0.03 | 0.08 | 0.08 | 94 | 1007.3 |
| 20260507000024 | 13 | 223 | 0.0 | 9.7 | 0.00 | 0.05 | 0.05 | 94 | 1006.3 |
| 20260507000003 | 13 | 196 | 1.6 | 9.7 | 0.00 | 0.05 | 0.05 | 94 | 1007.4 |
| 20260506235503 | 13 | 193 | 1.6 | 9.7 | 0.00 | 0.05 | 0.05 | 94 | 1007.3 |
| 20260506235003 | 13 | 217 | 0.0 | 1.6 | 0.00 | 0.05 | 0.05 | 94 | 1007.3 |
| 20260506234516 | 13 | 219 | 0.0 | 4.8 | 0.00 | 0.05 | 0.05 | 94 | 1006.2 |
| 20260506234503 | 13 | 220 | 0.0 | 4.8 | 0.00 | 0.05 | 0.05 | 94 | 1007.2 |
| 20260506234003 | 13 | 210 | 0.0 | 4.8 | 0.00 | 0.05 | 0.05 | 94 | 1007.2 |
| 20260506233503 | 13 | 200 | 0.0 | 3.2 | 0.00 | 0.05 | 0.05 | 94 | 1007.2 |
| 20260506233105 | 13 | 199 | 0.0 | 4.8 | 0.00 | 0.05 | 0.05 | 93 | 1006.1 |
| 20260506233003 | 13 | 199 | 0.0 | 4.8 | 0.00 | 0.05 | 0.05 | 93 | 1007.2 |
| 20260506232503 | 13 | 199 | 0.0 | 4.8 | 0.00 | 0.05 | 0.05 | 93 | 1007.3 |
| 20260506232003 | 13 | 0 | 0.0 | 0.0 | 0.00 | 0.05 | 0.05 | 93 | 1007.3 |
| 20260506231528 | 13 | 198 | 0.0 | 9.7 | 0.00 | 0.05 | 0.05 | 93 | 1006.4 |
| 20260506231503 | 13 | 203 | 0.0 | 9.7 | 0.00 | 0.05 | 0.05 | 93 | 1007.4 |
| 20260506231003 | 13 | 202 | 0.0 | 9.7 | 0.03 | 0.05 | 0.05 | 93 | 1007.5 |
| 20260506230524 | 13 | 204 | 0.0 | 6.4 | 0.03 | 0.05 | 0.05 | 93 | 1007.7 |
| 20260506230008 | 13 | 206 | 0.0 | 6.4 | 0.03 | 0.05 | 0.05 | 93 | 1006.4 |
| 20260506230003 | 13 | 206 | 0.0 | 6.4 | 0.03 | 0.05 | 0.05 | 93 | 1007.5 |
| 20260506225524 | 13 | 206 | 0.0 | 4.8 | 0.03 | 0.05 | 0.05 | 93 | 1007.4 |
| 20260506225003 | 13 | 0 | 0.0 | 0.0 | 0.03 | 0.05 | 0.05 | 93 | 1007.5 |
| 20260506224608 | 13 | 221 | 0.0 | 0.0 | 0.03 | 0.05 | 0.05 | 93 | 1006.3 |
| 20260506224524 | 13 | 213 | 0.0 | 4.8 | 0.03 | 0.05 | 0.05 | 93 | 1007.4 |
| 20260506224003 | 13 | 213 | 0.0 | 4.8 | 0.03 | 0.05 | 0.05 | 93 | 1007.3 |
| 20260506223503 | 13 | 0 | 0.0 | 3.2 | 0.03 | 0.05 | 0.05 | 93 | 1007.3 |
| 20260506223106 | 13 | 238 | 0.0 | 3.2 | 0.03 | 0.05 | 0.05 | 92 | 1006.3 |
| 20260506223003 | 13 | 0 | 0.0 | 3.2 | 0.03 | 0.05 | 0.05 | 92 | 1007.4 |
| 20260506222503 | 14 | 197 | 0.0 | 6.4 | 0.03 | 0.05 | 0.05 | 92 | 1007.5 |
| 20260506222003 | 14 | 196 | 0.0 | 6.4 | 0.03 | 0.05 | 0.05 | 92 | 1007.6 |
| 20260506221514 | 13 | 195 | 0.0 | 3.2 | 0.03 | 0.05 | 0.05 | 92 | 1006.6 |
| 20260506221503 | 14 | 194 | 0.0 | 3.2 | 0.03 | 0.05 | 0.05 | 92 | 1007.7 |
| 20260506221003 | 14 | 193 | 0.0 | 3.2 | 0.00 | 0.03 | 0.03 | 92 | 1007.7 |
| 20260506220524 | 14 | 196 | 1.6 | 8.0 | 0.00 | 0.03 | 0.03 | 92 | 1007.7 |
| 20260506220008 | 14 | 190 | 0.0 | 8.0 | 0.00 | 0.03 | 0.03 | 92 | 1006.8 |
| 20260506220003 | 14 | 196 | 1.6 | 8.0 | 0.00 | 0.03 | 0.03 | 92 | 1007.8 |
| 20260506215503 | 14 | 198 | 0.0 | 4.8 | 0.00 | 0.03 | 0.03 | 91 | 1007.8 |
| 20260506215003 | 15 | 197 | 0.0 | 9.7 | 0.03 | 0.03 | 0.03 | 91 | 1007.8 |
| 20260506214517 | 14 | 198 | 1.6 | 9.7 | 0.03 | 0.03 | 0.03 | 91 | 1006.8 |
| 20260506214503 | 15 | 195 | 0.0 | 9.7 | 0.03 | 0.03 | 0.03 | 91 | 1007.9 |
| 20260506214024 | 15 | 207 | 0.0 | 8.0 | 0.03 | 0.03 | 0.03 | 91 | 1007.9 |
| 20260506213503 | 15 | 220 | 0.0 | 6.4 | 0.03 | 0.03 | 0.03 | 91 | 1008.0 |
| 20260506213024 | 15 | 208 | 0.0 | 8.0 | 0.03 | 0.03 | 0.03 | 91 | 1008.0 |
| 20260506213010 | 14 | 229 | 0.0 | 8.0 | 0.03 | 0.03 | 0.03 | 91 | 1006.9 |
| 20260506212503 | 15 | 203 | 0.0 | 8.0 | 0.03 | 0.03 | 0.03 | 90 | 1008.0 |
| 20260506212003 | 15 | 205 | 0.0 | 8.0 | 0.03 | 0.03 | 0.03 | 90 | 1008.0 |
| 20260506211524 | 15 | 216 | 0.0 | 4.8 | 0.03 | 0.03 | 0.03 | 90 | 1008.0 |
| 20260506211510 | 15 | 207 | 0.0 | 4.8 | 0.03 | 0.03 | 0.03 | 90 | 1007.0 |
| 20260506211003 | 15 | 227 | 0.0 | 1.6 | 0.03 | 0.03 | 0.03 | 90 | 1008.1 |
| 20260506210503 | 15 | 200 | 0.0 | 6.4 | 0.03 | 0.03 | 0.03 | 90 | 1008.1 |
| 20260506210024 | 15 | 199 | 0.0 | 6.4 | 0.03 | 0.03 | 0.03 | 89 | 1008.0 |
| 20260506210018 | 15 | 205 | 0.0 | 6.4 | 0.03 | 0.03 | 0.03 | 89 | 1007.0 |
| 20260506205503 | 15 | 202 | 0.0 | 4.8 | 0.03 | 0.03 | 0.03 | 89 | 1008.1 |
| 20260506205003 | 15 | 205 | 0.0 | 8.0 | 0.00 | 0.00 | 0.00 | 89 | 1008.2 |
| 20260506204512 | 15 | 196 | 0.0 | 8.0 | 0.00 | 0.00 | 0.00 | 88 | 1007.1 |
| 20260506204503 | 15 | 204 | 0.0 | 8.0 | 0.00 | 0.00 | 0.00 | 88 | 1008.2 |
| 20260506204003 | 15 | 205 | 1.6 | 11.3 | 0.00 | 0.00 | 0.00 | 88 | 1008.2 |
| 20260506203503 | 16 | 215 | 1.6 | 11.3 | 0.00 | 0.00 | 0.00 | 88 | 1008.4 |
| 20260506203106 | 15 | 202 | 0.0 | 6.4 | 0.00 | 0.00 | 0.00 | 87 | 1007.2 |
| 20260506203003 | 16 | 210 | 1.6 | 6.4 | 0.00 | 0.00 | 0.00 | 87 | 1008.3 |
| 20260506202503 | 16 | 197 | 1.6 | 11.3 | 0.00 | 0.00 | 0.00 | 87 | 1008.2 |
| 20260506202003 | 16 | 201 | 1.6 | 11.3 | 0.00 | 0.00 | 0.00 | 87 | 1008.2 |
| 20260506201530 | 16 | 207 | 0.0 | 3.2 | 0.00 | 0.00 | 0.00 | 86 | 1007.3 |
| 20260506201503 | 16 | 210 | 0.0 | 3.2 | 0.00 | 0.00 | 0.00 | 86 | 1008.4 |
| 20260506201003 | 16 | 204 | 0.0 | 4.8 | 0.00 | 0.00 | 0.00 | 86 | 1008.4 |
| 20260506200503 | 16 | 208 | 0.0 | 4.8 | 0.00 | 0.00 | 0.00 | 85 | 1008.4 |
| 20260506200013 | 16 | 220 | 0.0 | 22.5 | 0.00 | 0.00 | 0.00 | 84 | 1007.3 |
| 20260506200003 | 16 | 196 | 1.6 | 22.5 | 0.00 | 0.00 | 0.00 | 84 | 1008.3 |
| 20260506195503 | 17 | 197 | 1.6 | 22.5 | 0.00 | 0.00 | 0.00 | 83 | 1008.3 |
| 20260506195003 | 17 | 211 | 0.0 | 4.8 | 0.00 | 0.00 | 0.00 | 82 | 1008.3 |
| 20260506194508 | 17 | 214 | 0.0 | 6.4 | 0.00 | 0.00 | 0.00 | 80 | 1007.2 |
| 20260506194503 | 17 | 208 | 0.0 | 6.4 | 0.00 | 0.00 | 0.00 | 80 | 1008.2 |
| 20260506194003 | 17 | 208 | 0.0 | 6.4 | 0.00 | 0.00 | 0.00 | 79 | 1008.4 |
| 20260506193503 | 17 | 236 | 0.0 | 11.3 | 0.00 | 0.00 | 0.00 | 78 | 1008.5 |
| 20260506193105 | 17 | 223 | 0.0 | 11.3 | 0.00 | 0.00 | 0.00 | 78 | 1007.6 |
| 20260506193003 | 17 | 236 | 1.6 | 11.3 | 0.00 | 0.00 | 0.00 | 77 | 1008.6 |
| 20260506192503 | 17 | 224 | 1.6 | 8.0 | 0.00 | 0.00 | 0.00 | 77 | 1008.6 |
| 20260506192003 | 18 | 210 | 1.6 | 8.0 | 0.00 | 0.00 | 0.00 | 75 | 1008.7 |
| 20260506191517 | 18 | 211 | 0.0 | 9.7 | 0.00 | 0.00 | 0.00 | 74 | 1007.5 |
| 20260506191503 | 18 | 202 | 1.6 | 9.7 | 0.00 | 0.00 | 0.00 | 74 | 1008.6 |
| 20260506191003 | 18 | 203 | 1.6 | 9.7 | 0.00 | 0.00 | 0.00 | 73 | 1008.6 |
| 20260506190503 | 18 | 215 | 1.6 | 8.0 | 0.00 | 0.00 | 0.00 | 73 | 1008.6 |
| 20260506190011 | 18 | 213 | 1.6 | 11.3 | 0.00 | 0.00 | 0.00 | 72 | 1007.6 |
| 20260506190003 | 18 | 212 | 1.6 | 11.3 | 0.00 | 0.00 | 0.00 | 72 | 1008.6 |
| 20260506185503 | 18 | 216 | 1.6 | 12.9 | 0.00 | 0.00 | 0.00 | 72 | 1008.6 |
| 20260506185024 | 18 | 213 | 3.2 | 12.9 | 0.00 | 0.00 | 0.00 | 72 | 1008.5 |
| 20260506184521 | 18 | 208 | 3.2 | 12.9 | 0.00 | 0.00 | 0.00 | 71 | 1007.5 |
| 20260506184503 | 18 | 213 | 3.2 | 12.9 | 0.00 | 0.00 | 0.00 | 71 | 1008.5 |
| 20260506184024 | 18 | 208 | 1.6 | 14.5 | 0.00 | 0.00 | 0.00 | 71 | 1008.7 |
| 20260506183524 | 18 | 202 | 1.6 | 14.5 | 0.00 | 0.00 | 0.00 | 71 | 1008.7 |
| 20260506183026 | 18 | 209 | 1.6 | 16.1 | 0.00 | 0.00 | 0.00 | 71 | 1007.7 |
| 20260506183003 | 18 | 202 | 1.6 | 16.1 | 0.00 | 0.00 | 0.00 | 71 | 1008.8 |
| 20260506182503 | 19 | 200 | 3.2 | 16.1 | 0.00 | 0.00 | 0.00 | 70 | 1008.9 |
| 20260506182003 | 19 | 202 | 3.2 | 14.5 | 0.00 | 0.00 | 0.00 | 69 | 1008.7 |
| 20260506181515 | 19 | 173 | 1.6 | 16.1 | 0.00 | 0.00 | 0.00 | 69 | 1007.7 |
| 20260506181503 | 20 | 210 | 3.2 | 16.1 | 0.00 | 0.00 | 0.00 | 69 | 1008.8 |
| 20260506181024 | 20 | 222 | 1.6 | 16.1 | 0.00 | 0.00 | 0.00 | 68 | 1008.7 |
| 20260506180503 | 20 | 209 | 1.6 | 12.9 | 0.00 | 0.00 | 0.00 | 69 | 1009.0 |
| 20260506180011 | 20 | 201 | 1.6 | 9.7 | 0.00 | 0.00 | 0.00 | 68 | 1007.9 |
| 20260506180004 | 20 | 202 | 1.6 | 9.7 | 0.00 | 0.00 | 0.00 | 68 | 1009.0 |
| 20260506175503 | 20 | 216 | 0.0 | 6.4 | 0.00 | 0.00 | 0.00 | 68 | 1009.1 |
| 20260506175003 | 20 | 239 | 1.6 | 9.7 | 0.00 | 0.00 | 0.00 | 67 | 1009.1 |
| 20260506174521 | 20 | 199 | 1.6 | 9.7 | 0.00 | 0.00 | 0.00 | 67 | 1008.2 |
| 20260506174503 | 20 | 233 | 3.2 | 20.9 | 0.00 | 0.00 | 0.00 | 67 | 1009.3 |
| 20260506174003 | 20 | 222 | 4.8 | 27.4 | 0.00 | 0.00 | 0.00 | 67 | 1009.3 |
| 20260506173503 | 20 | 213 | 4.8 | 27.4 | 0.00 | 0.00 | 0.00 | 67 | 1009.4 |
| 20260506173016 | 20 | 267 | 1.6 | 16.1 | 0.00 | 0.00 | 0.00 | 67 | 1008.4 |
| 20260506173003 | 20 | 206 | 3.2 | 20.9 | 0.00 | 0.00 | 0.00 | 67 | 1009.4 |
| 20260506172503 | 20 | 210 | 3.2 | 20.9 | 0.00 | 0.00 | 0.00 | 67 | 1009.4 |
| 20260506172003 | 20 | 206 | 1.6 | 19.3 | 0.00 | 0.00 | 0.00 | 67 | 1009.4 |
| 20260506171524 | 20 | 210 | 1.6 | 11.3 | 0.00 | 0.00 | 0.00 | 68 | 1009.2 |
| 20260506171515 | 20 | 180 | 0.0 | 11.3 | 0.00 | 0.00 | 0.00 | 68 | 1008.2 |
| 20260506171003 | 20 | 207 | 1.6 | 11.3 | 0.00 | 0.00 | 0.00 | 68 | 1009.2 |
| 20260506170503 | 20 | 198 | 3.2 | 12.9 | 0.00 | 0.00 | 0.00 | 69 | 1009.1 |
| 20260506170020 | 19 | 213 | 1.6 | 12.9 | 0.00 | 0.00 | 0.00 | 70 | 1008.3 |
| 20260506170003 | 20 | 200 | 3.2 | 12.9 | 0.00 | 0.00 | 0.00 | 70 | 1009.4 |
| 20260506165503 | 19 | 204 | 3.2 | 14.5 | 0.00 | 0.00 | 0.00 | 70 | 1009.4 |
| 20260506165003 | 19 | 201 | 3.2 | 14.5 | 0.00 | 0.00 | 0.00 | 70 | 1009.6 |
| 20260506164514 | 19 | 202 | 1.6 | 12.9 | 0.00 | 0.00 | 0.00 | 70 | 1008.6 |
| 20260506164503 | 19 | 195 | 1.6 | 12.9 | 0.00 | 0.00 | 0.00 | 70 | 1009.7 |
| 20260506164024 | 19 | 197 | 1.6 | 12.9 | 0.00 | 0.00 | 0.00 | 70 | 1009.7 |
| 20260506163503 | 20 | 201 | 3.2 | 14.5 | 0.00 | 0.00 | 0.00 | 70 | 1009.8 |
| 20260506163011 | 19 | 204 | 0.0 | 14.5 | 0.00 | 0.00 | 0.00 | 69 | 1008.8 |
| 20260506163003 | 20 | 202 | 1.6 | 14.5 | 0.00 | 0.00 | 0.00 | 69 | 1009.8 |
| 20260506162503 | 20 | 200 | 1.6 | 9.7 | 0.00 | 0.00 | 0.00 | 69 | 1010.0 |
| 20260506162003 | 20 | 205 | 1.6 | 9.7 | 0.00 | 0.00 | 0.00 | 69 | 1010.1 |
| 20260506161503 | 20 | 208 | 1.6 | 14.5 | 0.00 | 0.00 | 0.00 | 69 | 1010.1 |
| 20260506161003 | 20 | 205 | 1.6 | 14.5 | 0.00 | 0.00 | 0.00 | 69 | 1010.1 |
| 20260506160503 | 20 | 216 | 1.6 | 22.5 | 0.00 | 0.00 | 0.00 | 68 | 1010.2 |
| 20260506160010 | 20 | 244 | 1.6 | 22.5 | 0.00 | 0.00 | 0.00 | 68 | 1009.2 |
| 20260506160003 | 20 | 220 | 1.6 | 22.5 | 0.00 | 0.00 | 0.00 | 68 | 1010.3 |
| 20260506155503 | 20 | 216 | 1.6 | 11.3 | 0.00 | 0.00 | 0.00 | 69 | 1010.4 |
| 20260506155024 | 20 | 216 | 1.6 | 12.9 | 0.00 | 0.00 | 0.00 | 69 | 1010.5 |
| 20260506154517 | 20 | 229 | 0.0 | 12.9 | 0.00 | 0.00 | 0.00 | 70 | 1009.3 |
| 20260506154503 | 20 | 204 | 1.6 | 12.9 | 0.00 | 0.00 | 0.00 | 70 | 1010.4 |
| 20260506154003 | 20 | 200 | 3.2 | 14.5 | 0.00 | 0.00 | 0.00 | 69 | 1010.5 |
| 20260506153503 | 20 | 204 | 3.2 | 14.5 | 0.00 | 0.00 | 0.00 | 69 | 1010.6 |
| 20260506153011 | 19 | 213 | 1.6 | 9.7 | 0.00 | 0.00 | 0.00 | 69 | 1009.8 |
| 20260506153003 | 20 | 209 | 1.6 | 9.7 | 0.00 | 0.00 | 0.00 | 69 | 1010.8 |
| 20260506152503 | 20 | 228 | 1.6 | 24.1 | 0.00 | 0.00 | 0.00 | 70 | 1010.8 |
| 20260506152024 | 20 | 220 | 3.2 | 24.1 | 0.00 | 0.00 | 0.00 | 71 | 1010.8 |
| 20260506151506 | 19 | 196 | 3.2 | 17.7 | 0.00 | 0.00 | 0.00 | 70 | 1009.8 |
| 20260506151503 | 19 | 197 | 1.6 | 17.7 | 0.00 | 0.00 | 0.00 | 70 | 1010.9 |
| 20260506151003 | 19 | 200 | 1.6 | 17.7 | 0.00 | 0.00 | 0.00 | 70 | 1010.8 |
| 20260506150503 | 20 | 214 | 1.6 | 12.9 | 0.00 | 0.00 | 0.00 | 69 | 1010.9 |
| 20260506150024 | 20 | 221 | 3.2 | 12.9 | 0.00 | 0.00 | 0.00 | 69 | 1010.8 |
| 20260506150019 | 19 | 218 | 1.6 | 12.9 | 0.00 | 0.00 | 0.00 | 69 | 1009.7 |
| 20260506145503 | 20 | 213 | 3.2 | 16.1 | 0.00 | 0.00 | 0.00 | 69 | 1010.8 |
| 20260506145003 | 20 | 209 | 1.6 | 16.1 | 0.00 | 0.00 | 0.00 | 69 | 1010.8 |
| 20260506144515 | 20 | 205 | 3.2 | 14.5 | 0.00 | 0.00 | 0.00 | 69 | 1009.8 |
| 20260506144503 | 20 | 209 | 1.6 | 14.5 | 0.00 | 0.00 | 0.00 | 70 | 1010.8 |
| 20260506144003 | 20 | 202 | 1.6 | 12.9 | 0.00 | 0.00 | 0.00 | 70 | 1010.7 |
| 20260506143503 | 20 | 196 | 1.6 | 11.3 | 0.00 | 0.00 | 0.00 | 69 | 1010.6 |
| 20260506143027 | 19 | 184 | 0.0 | 12.9 | 0.00 | 0.00 | 0.00 | 70 | 1009.4 |
| 20260506143024 | 20 | 207 | 1.6 | 12.9 | 0.00 | 0.00 | 0.00 | 70 | 1010.5 |
| 20260506142524 | 20 | 201 | 1.6 | 12.9 | 0.00 | 0.00 | 0.00 | 70 | 1010.6 |
| 20260506142003 | 19 | 193 | 1.6 | 9.7 | 0.00 | 0.00 | 0.00 | 71 | 1010.6 |
| 20260506141509 | 19 | 155 | 0.0 | 9.7 | 0.00 | 0.00 | 0.00 | 72 | 1009.5 |
| 20260506141503 | 19 | 197 | 1.6 | 8.0 | 0.00 | 0.00 | 0.00 | 72 | 1010.6 |
| 20260506141024 | 19 | 192 | 0.0 | 8.0 | 0.00 | 0.00 | 0.00 | 72 | 1010.6 |
| 20260506140503 | 19 | 192 | 1.6 | 11.3 | 0.00 | 0.00 | 0.00 | 72 | 1010.7 |
| 20260506140107 | 18 | 190 | 0.0 | 11.3 | 0.00 | 0.00 | 0.00 | 72 | 1009.6 |
| 20260506140003 | 19 | 191 | 1.6 | 9.7 | 0.00 | 0.00 | 0.00 | 73 | 1010.6 |
| 20260506135524 | 18 | 198 | 3.2 | 12.9 | 0.00 | 0.00 | 0.00 | 73 | 1010.5 |
| 20260506135003 | 18 | 204 | 1.6 | 12.9 | 0.00 | 0.00 | 0.00 | 74 | 1010.6 |
| 20260506134511 | 18 | 212 | 0.0 | 4.8 | 0.00 | 0.00 | 0.00 | 75 | 1009.6 |
| 20260506134503 | 18 | 187 | 0.0 | 8.0 | 0.00 | 0.00 | 0.00 | 75 | 1010.7 |
| 20260506134003 | 18 | 225 | 1.6 | 8.0 | 0.00 | 0.00 | 0.00 | 76 | 1011.1 |
| 20260506133503 | 18 | 219 | 1.6 | 16.1 | 0.00 | 0.00 | 0.00 | 76 | 1011.2 |
| 20260506133024 | 17 | 204 | 3.2 | 16.1 | 0.00 | 0.00 | 0.00 | 76 | 1011.2 |
| 20260506133017 | 17 | 211 | 1.6 | 16.1 | 0.00 | 0.00 | 0.00 | 76 | 1010.1 |
| 20260506132503 | 17 | 204 | 1.6 | 11.3 | 0.00 | 0.00 | 0.00 | 78 | 1011.2 |
| 20260506132003 | 17 | 207 | 0.0 | 6.4 | 0.00 | 0.00 | 0.00 | 79 | 1011.3 |
| 20260506131515 | 17 | 200 | 0.0 | 6.4 | 0.00 | 0.00 | 0.00 | 79 | 1010.2 |
| 20260506131503 | 17 | 220 | 1.6 | 6.4 | 0.00 | 0.00 | 0.00 | 79 | 1011.3 |
| 20260506131003 | 17 | 212 | 1.6 | 8.0 | 0.00 | 0.00 | 0.00 | 81 | 1011.2 |
| 20260506130524 | 16 | 210 | 1.6 | 12.9 | 0.00 | 0.00 | 0.00 | 81 | 1011.2 |
| 20260506130011 | 16 | 207 | 0.0 | 8.0 | 0.00 | 0.00 | 0.00 | 82 | 1010.2 |
| 20260506130003 | 16 | 222 | 1.6 | 12.9 | 0.00 | 0.00 | 0.00 | 82 | 1011.3 |
| 20260506125503 | 16 | 213 | 1.6 | 12.9 | 0.00 | 0.00 | 0.00 | 82 | 1011.2 |
| 20260506125003 | 16 | 210 | 1.6 | 12.9 | 0.00 | 0.00 | 0.00 | 83 | 1011.3 |
| 20260506124513 | 15 | 192 | 0.0 | 12.9 | 0.00 | 0.00 | 0.00 | 83 | 1010.4 |
| 20260506124503 | 16 | 200 | 1.6 | 8.0 | 0.00 | 0.00 | 0.00 | 83 | 1011.5 |
| 20260506124003 | 16 | 205 | 1.6 | 14.5 | 0.00 | 0.00 | 0.00 | 83 | 1011.4 |
| 20260506123503 | 15 | 212 | 1.6 | 14.5 | 0.00 | 0.00 | 0.00 | 84 | 1011.4 |
| 20260506123105 | 15 | 244 | 0.0 | 4.8 | 0.00 | 0.00 | 0.00 | 84 | 1010.3 |
| 20260506123024 | 15 | 218 | 0.0 | 4.8 | 0.00 | 0.00 | 0.00 | 84 | 1011.4 |
| 20260506122503 | 15 | 213 | 0.0 | 4.8 | 0.00 | 0.00 | 0.00 | 84 | 1011.2 |
| 20260506122003 | 15 | 228 | 0.0 | 4.8 | 0.00 | 0.00 | 0.00 | 85 | 1011.1 |
| 20260506121510 | 15 | 226 | 0.0 | 6.4 | 0.00 | 0.00 | 0.00 | 86 | 1010.1 |
| 20260506121503 | 15 | 215 | 0.0 | 6.4 | 0.00 | 0.00 | 0.00 | 86 | 1011.1 |
| 20260506121003 | 15 | 210 | 1.6 | 8.0 | 0.00 | 0.00 | 0.00 | 86 | 1011.3 |
| 20260506120503 | 15 | 207 | 1.6 | 8.0 | 0.00 | 0.00 | 0.00 | 86 | 1011.6 |
| 20260506120105 | 15 | 207 | 0.0 | 11.3 | 0.00 | 0.00 | 0.00 | 86 | 1010.5 |
| 20260506120003 | 15 | 206 | 1.6 | 11.3 | 0.00 | 0.00 | 0.00 | 86 | 1011.6 |
| 20260506115503 | 15 | 204 | 1.6 | 11.3 | 0.00 | 0.00 | 0.00 | 86 | 1011.7 |
| 20260506115003 | 15 | 204 | 1.6 | 8.0 | 0.00 | 0.00 | 0.00 | 87 | 1011.8 |
| 20260506114516 | 14 | 205 | 0.0 | 9.7 | 0.00 | 0.00 | 0.00 | 87 | 1010.7 |
| 20260506114503 | 15 | 202 | 1.6 | 17.7 | 0.00 | 0.00 | 0.00 | 87 | 1011.8 |
| 20260506114003 | 15 | 200 | 1.6 | 17.7 | 0.00 | 0.00 | 0.00 | 87 | 1011.8 |
| 20260506113503 | 14 | 197 | 1.6 | 11.3 | 0.00 | 0.00 | 0.00 | 88 | 1011.9 |
| 20260506113016 | 14 | 196 | 3.2 | 11.3 | 0.00 | 0.00 | 0.00 | 88 | 1010.7 |
| 20260506113003 | 14 | 197 | 1.6 | 11.3 | 0.00 | 0.00 | 0.00 | 88 | 1011.8 |
| 20260506112503 | 14 | 203 | 1.6 | 8.0 | 0.00 | 0.00 | 0.00 | 89 | 1011.8 |
| 20260506112003 | 14 | 204 | 1.6 | 8.0 | 0.00 | 0.00 | 0.00 | 88 | 1011.8 |
| 20260506111516 | 13 | 202 | 0.0 | 8.0 | 0.00 | 0.00 | 0.00 | 89 | 1010.7 |
| 20260506111503 | 14 | 200 | 1.6 | 9.7 | 0.00 | 0.00 | 0.00 | 89 | 1011.7 |
| 20260506111003 | 14 | 198 | 1.6 | 9.7 | 0.00 | 0.00 | 0.00 | 89 | 1011.7 |
| 20260506110503 | 14 | 199 | 0.0 | 6.4 | 0.00 | 0.00 | 0.00 | 89 | 1011.7 |
| 20260506110009 | 13 | 191 | 0.0 | 4.8 | 0.00 | 0.00 | 0.00 | 89 | 1010.7 |
| 20260506110003 | 14 | 202 | 0.0 | 4.8 | 0.00 | 0.00 | 0.00 | 89 | 1011.8 |
| 20260506105503 | 14 | 203 | 0.0 | 4.8 | 0.00 | 0.00 | 0.00 | 88 | 1011.7 |
| 20260506105003 | 14 | 0 | 0.0 | 4.8 | 0.00 | 0.00 | 0.00 | 88 | 1011.8 |
| 20260506104505 | 13 | 203 | 0.0 | 4.8 | 0.00 | 0.00 | 0.00 | 88 | 1010.7 |
| 20260506104503 | 14 | 199 | 0.0 | 4.8 | 0.00 | 0.00 | 0.00 | 88 | 1011.8 |
| 20260506104003 | 14 | 200 | 0.0 | 6.4 | 0.00 | 0.00 | 0.00 | 88 | 1011.8 |
| 20260506103503 | 14 | 200 | 0.0 | 6.4 | 0.00 | 0.00 | 0.00 | 88 | 1011.8 |
| 20260506103014 | 13 | 200 | 0.0 | 6.4 | 0.00 | 0.00 | 0.00 | 88 | 1010.6 |
| 20260506103003 | 14 | 200 | 0.0 | 6.4 | 0.00 | 0.00 | 0.00 | 88 | 1011.7 |
| 20260506102524 | 14 | 200 | 0.0 | 6.4 | 0.00 | 0.00 | 0.00 | 87 | 1011.7 |
| 20260506102003 | 14 | 211 | 0.0 | 6.4 | 0.00 | 0.00 | 0.00 | 87 | 1011.7 |
| 20260506101524 | 14 | 211 | 0.0 | 4.8 | 0.00 | 0.00 | 0.00 | 87 | 1011.7 |
| 20260506101505 | 13 | 210 | 0.0 | 4.8 | 0.00 | 0.00 | 0.00 | 87 | 1010.7 |
| 20260506101003 | 14 | 212 | 0.0 | 4.8 | 0.00 | 0.00 | 0.00 | 87 | 1011.6 |
| 20260506100503 | 14 | 212 | 0.0 | 6.4 | 0.00 | 0.00 | 0.00 | 87 | 1011.6 |
| 20260506100017 | 13 | 212 | 0.0 | 6.4 | 0.00 | 0.00 | 0.00 | 87 | 1010.4 |
| 20260506100003 | 14 | 211 | 0.0 | 6.4 | 0.00 | 0.00 | 0.00 | 87 | 1011.6 |
| 20260506095503 | 14 | 212 | 0.0 | 6.4 | 0.00 | 0.00 | 0.00 | 87 | 1011.5 |
| 20260506095024 | 14 | 202 | 0.0 | 8.0 | 0.00 | 0.00 | 0.00 | 86 | 1011.5 |
| 20260506094524 | 14 | 201 | 1.6 | 8.0 | 0.00 | 0.00 | 0.00 | 86 | 1011.4 |
| 20260506094513 | 14 | 212 | 0.0 | 8.0 | 0.00 | 0.00 | 0.00 | 86 | 1010.3 |
| 20260506094024 | 14 | 203 | 0.0 | 6.4 | 0.00 | 0.00 | 0.00 | 86 | 1011.4 |
| 20260506093503 | 14 | 203 | 1.6 | 8.0 | 0.00 | 0.00 | 0.00 | 86 | 1011.4 |
| 20260506093005 | 14 | 205 | 0.0 | 8.0 | 0.00 | 0.00 | 0.00 | 86 | 1010.3 |
| 20260506093003 | 14 | 199 | 0.0 | 8.0 | 0.00 | 0.00 | 0.00 | 86 | 1011.4 |
| 20260506092503 | 14 | 190 | 0.0 | 6.4 | 0.00 | 0.00 | 0.00 | 86 | 1011.3 |
| 20260506092003 | 14 | 190 | 1.6 | 8.0 | 0.00 | 0.00 | 0.00 | 86 | 1011.3 |
| 20260506091520 | 14 | 189 | 0.0 | 8.0 | 0.00 | 0.00 | 0.00 | 86 | 1010.2 |
| 20260506091503 | 14 | 192 | 0.0 | 8.0 | 0.00 | 0.00 | 0.00 | 86 | 1011.3 |
| 20260506091003 | 14 | 198 | 0.0 | 8.0 | 0.00 | 0.00 | 0.00 | 86 | 1011.3 |
| 20260506090503 | 14 | 206 | 1.6 | 8.0 | 0.00 | 0.00 | 0.00 | 85 | 1011.4 |
| 20260506090024 | 14 | 203 | 1.6 | 8.0 | 0.00 | 0.00 | 0.00 | 85 | 1011.4 |
| 20260506090019 | 14 | 256 | 1.6 | 8.0 | 0.00 | 0.00 | 0.00 | 85 | 1010.4 |
| 20260506085503 | 15 | 202 | 1.6 | 8.0 | 0.00 | 0.00 | 0.00 | 85 | 1011.5 |
| 20260506085003 | 15 | 206 | 1.6 | 8.0 | 0.00 | 0.00 | 0.00 | 85 | 1011.5 |
| 20260506084507 | 14 | 207 | 0.0 | 8.0 | 0.00 | 0.00 | 0.00 | 85 | 1010.5 |
| 20260506084503 | 15 | 210 | 1.6 | 8.0 | 0.00 | 0.00 | 0.00 | 85 | 1011.6 |
| 20260506084003 | 15 | 221 | 1.6 | 8.0 | 0.00 | 0.00 | 0.00 | 84 | 1011.6 |
| 20260506083524 | 15 | 213 | 1.6 | 8.0 | 0.00 | 0.00 | 0.00 | 84 | 1011.6 |
| 20260506083019 | 14 | 195 | 1.6 | 8.0 | 0.00 | 0.00 | 0.00 | 84 | 1010.5 |
| 20260506083003 | 15 | 197 | 0.0 | 8.0 | 0.00 | 0.00 | 0.00 | 84 | 1011.6 |
| 20260506082503 | 15 | 199 | 0.0 | 6.4 | 0.00 | 0.00 | 0.00 | 84 | 1011.6 |
| 20260506082024 | 15 | 201 | 0.0 | 3.2 | 0.00 | 0.00 | 0.00 | 83 | 1011.6 |
| 20260506081513 | 15 | 213 | 0.0 | 11.3 | 0.00 | 0.00 | 0.00 | 83 | 1010.5 |
| 20260506081503 | 15 | 203 | 0.0 | 11.3 | 0.00 | 0.00 | 0.00 | 83 | 1011.6 |
| 20260506081003 | 15 | 208 | 1.6 | 11.3 | 0.00 | 0.00 | 0.00 | 83 | 1011.5 |
| 20260506080503 | 15 | 210 | 1.6 | 8.0 | 0.00 | 0.00 | 0.00 | 83 | 1011.5 |
| 20260506073524 | 15 | 221 | 1.6 | 8.0 | 0.00 | 0.00 | 0.00 | 82 | 1011.5 |
| 20260506073024 | 15 | 230 | 1.6 | 11.3 | 0.00 | 0.00 | 0.00 | 83 | 1011.5 |
| 20260506073015 | 15 | 211 | 1.6 | 8.0 | 0.00 | 0.00 | 0.00 | 82 | 1010.4 |
| 20260506072503 | 15 | 211 | 1.6 | 11.3 | 0.00 | 0.00 | 0.00 | 82 | 1011.4 |
| 20260506072024 | 15 | 202 | 1.6 | 12.9 | 0.00 | 0.00 | 0.00 | 83 | 1011.4 |
| 20260506071508 | 15 | 196 | 1.6 | 12.9 | 0.00 | 0.00 | 0.00 | 82 | 1010.3 |
| 20260506071503 | 15 | 204 | 1.6 | 12.9 | 0.00 | 0.00 | 0.00 | 82 | 1011.3 |
| 20260506071003 | 15 | 206 | 1.6 | 9.7 | 0.00 | 0.00 | 0.00 | 82 | 1011.2 |
| 20260506070503 | 15 | 203 | 1.6 | 9.7 | 0.00 | 0.00 | 0.00 | 82 | 1011.2 |
| 20260506070105 | 15 | 216 | 0.0 | 8.0 | 0.00 | 0.00 | 0.00 | 82 | 1010.2 |
| 20260506062503 | 15 | 215 | 0.0 | 8.0 | 0.00 | 0.00 | 0.00 | 80 | 1011.3 |
| 20260506062003 | 15 | 203 | 1.6 | 9.7 | 0.00 | 0.00 | 0.00 | 80 | 1011.3 |
| 20260506061524 | 15 | 202 | 0.0 | 9.7 | 0.00 | 0.00 | 0.00 | 80 | 1010.2 |
| 20260506061503 | 15 | 198 | 1.6 | 9.7 | 0.00 | 0.00 | 0.00 | 80 | 1011.2 |
| 20260506061003 | 15 | 197 | 1.6 | 9.7 | 0.00 | 0.00 | 0.00 | 80 | 1011.2 |
| 20260506060503 | 15 | 204 | 1.6 | 9.7 | 0.00 | 0.00 | 0.00 | 80 | 1011.3 |
| 20260506051003 | 15 | 202 | 3.2 | 12.9 | 0.00 | 0.00 | 0.00 | 78 | 1011.7 |
| 20260506050503 | 15 | 197 | 1.6 | 12.9 | 0.00 | 0.00 | 0.00 | 77 | 1011.8 |
| 20260506045003 | 15 | 211 | 1.6 | 12.9 | 0.00 | 0.00 | 0.00 | 77 | 1011.9 |
| 20260506044524 | 15 | 210 | 0.0 | 11.3 | 0.00 | 0.00 | 0.00 | 77 | 1011.9 |
| 20260506044510 | 15 | 211 | 0.0 | 11.3 | 0.00 | 0.00 | 0.00 | 77 | 1010.9 |
| 20260506044003 | 15 | 212 | 0.0 | 6.4 | 0.00 | 0.00 | 0.00 | 76 | 1011.9 |
| 20260506043503 | 15 | 212 | 0.0 | 6.4 | 0.00 | 0.00 | 0.00 | 76 | 1011.9 |
| 20260506043034 | 15 | 215 | 0.0 | 4.8 | 0.00 | 0.00 | 0.00 | 76 | 1010.9 |
| 20260506043003 | 15 | 218 | 0.0 | 6.4 | 0.00 | 0.00 | 0.00 | 76 | 1011.9 |
| 20260506042503 | 15 | 208 | 0.0 | 6.4 | 0.00 | 0.00 | 0.00 | 76 | 1011.9 |
| 20260506042003 | 15 | 206 | 1.6 | 6.4 | 0.00 | 0.00 | 0.00 | 76 | 1011.8 |
| 20260506041510 | 15 | 217 | 0.0 | 8.0 | 0.00 | 0.00 | 0.00 | 75 | 1010.7 |
| 20260506041503 | 15 | 205 | 1.6 | 8.0 | 0.00 | 0.00 | 0.00 | 75 | 1011.8 |
| 20260506041024 | 15 | 201 | 0.0 | 8.0 | 0.00 | 0.00 | 0.00 | 75 | 1011.8 |